CW4141 Weather Reports


Display with metric or nautical units.
time (UTC)temp
F
wind
direction
speed
MPH
gust
MPH
rain 1hr
in
rain 24hr
in
rain mn
in
humidity
%
barometer
mb
20260506174549 70 82 0.0 2.0 0.00 0.00 0.00 50 1020.0
20260506174535 70 101 0.0 2.0 0.00 0.00 0.00 50 1016.7
20260506173052 69 0 0.0 3.0 0.00 0.00 0.00 48 1020.0
20260506173032 69 107 0.0 3.0 0.00 0.00 0.00 49 1016.8
20260506171606 68 0 0.0 2.0 0.00 0.00 0.00 55 1020.0
20260506171529 68 107 0.0 1.0 0.00 0.00 0.00 54 1016.8
20260506170059 66 0 0.0 4.0 0.00 0.00 0.00 56 1019.9
20260506170024 66 107 0.0 4.0 0.00 0.00 0.00 57 1016.8
20260506164551 65 105 0.0 2.0 0.00 0.00 0.00 56 1020.0
20260506164521 65 105 0.0 2.0 0.00 0.00 0.00 56 1016.8
20260506163107 64 30 0.0 3.0 0.00 0.00 0.00 61 1019.9
20260506163014 64 30 0.0 3.0 0.00 0.00 0.00 62 1016.8
20260506161557 61 0 0.0 1.0 0.00 0.00 0.00 70 1019.8
20260506161510 61 29 0.0 1.0 0.00 0.00 0.00 71 1016.8
20260506160101 58 0 0.0 2.0 0.00 0.00 0.00 80 1019.8
20260506160006 57 29 0.0 2.0 0.00 0.00 0.00 82 1016.8
20260506154603 55 29 0.0 1.0 0.00 0.00 0.00 90 1016.8
20260506154554 55 0 0.0 1.0 0.00 0.00 0.00 90 1019.8
20260506153055 53 29 0.0 0.0 0.00 0.00 0.00 92 1016.8
20260506153053 53 0 0.0 0.0 0.00 0.00 0.00 91 1019.7
20260506151558 52 0 0.0 0.0 0.00 0.00 0.00 91 1019.8
20260506151552 52 29 0.0 0.0 0.00 0.00 0.00 92 1016.9
20260506150059 50 28 0.0 1.0 0.00 0.00 0.00 92 1016.9
20260506150056 50 0 0.0 1.0 0.00 0.00 0.00 91 1019.8
20260506144603 48 28 0.0 0.0 0.00 0.00 0.00 91 1016.9
20260506143101 47 0 0.0 0.0 0.00 0.00 0.00 89 1019.7
20260506143053 47 28 0.0 0.0 0.00 0.00 0.00 90 1016.8
20260506141554 46 0 0.0 0.0 0.00 0.00 0.00 88 1019.7
20260506141549 46 28 0.0 0.0 0.00 0.00 0.00 89 1016.9
20260506140105 45 0 0.0 0.0 0.00 0.00 0.00 87 1019.6
20260506134553 44 0 0.0 0.0 0.00 0.00 0.00 86 1019.3
20260506134544 44 28 0.0 0.0 0.00 0.00 0.00 87 1016.6
20260506133056 44 0 0.0 0.0 0.00 0.00 0.00 86 1019.3
20260506133047 44 28 0.0 0.0 0.00 0.00 0.00 86 1016.4
20260506131605 45 0 0.0 0.0 0.00 0.00 0.00 86 1019.1
20260506131544 45 178 0.0 0.0 0.00 0.00 0.00 86 1016.4
20260506130059 45 0 0.0 0.0 0.00 0.00 0.00 86 1019.0
20260506130052 45 178 0.0 0.0 0.00 0.00 0.00 86 1016.3
20260506124557 45 0 0.0 0.0 0.00 0.00 0.00 85 1018.9
20260506124538 45 178 0.0 0.0 0.00 0.00 0.00 86 1016.2
20260506123053 45 0 0.0 0.0 0.00 0.00 0.00 85 1018.6
20260506123040 45 178 0.0 0.0 0.00 0.00 0.00 86 1016.0
20260506121602 46 0 0.0 0.0 0.00 0.00 0.00 85 1018.5
20260506121534 46 178 0.0 0.0 0.00 0.00 0.00 86 1016.0
20260506120056 46 0 0.0 0.0 0.00 0.00 0.00 85 1018.5
20260506120034 46 178 0.0 0.0 0.00 0.06 0.00 85 1016.0
20260506114559 46 0 0.0 0.0 0.00 0.06 0.00 85 1018.5
20260506114531 46 178 0.0 0.0 0.00 0.06 0.00 85 1016.0
20260506113054 46 0 0.0 0.0 0.00 0.06 0.00 85 1018.5
20260506113036 46 178 0.0 0.0 0.00 0.06 0.00 85 1015.9
20260506111555 47 0 0.0 0.0 0.00 0.06 0.00 84 1018.4
20260506111532 47 178 0.0 0.0 0.00 0.06 0.00 85 1015.8
20260506110054 47 0 0.0 0.0 0.00 0.06 0.00 84 1018.2
20260506110038 47 178 0.0 0.0 0.00 0.06 0.00 85 1015.9
20260506104556 47 0 0.0 0.0 0.00 0.06 0.00 84 1018.4
20260506104527 47 178 0.0 0.0 0.00 0.06 0.00 84 1015.8
20260506103055 48 0 0.0 0.0 0.00 0.06 0.00 83 1018.3
20260506103025 48 178 0.0 0.0 0.00 0.06 0.00 84 1015.7
20260506101551 48 0 0.0 0.0 0.00 0.06 0.00 83 1018.2
20260506101524 48 178 0.0 0.0 0.00 0.06 0.00 84 1015.6
20260506100105 48 0 0.0 0.0 0.00 0.06 0.00 83 1018.1
20260506100021 48 178 0.0 0.0 0.00 0.07 0.00 83 1015.6
20260506094552 49 0 0.0 0.0 0.00 0.07 0.00 83 1018.1
20260506094519 49 178 0.0 0.0 0.00 0.07 0.00 83 1015.6
20260506093051 49 0 0.0 0.0 0.00 0.07 0.00 82 1018.1
20260506093023 49 178 0.0 0.0 0.00 0.07 0.00 83 1015.7
20260506091554 50 0 0.0 0.0 0.00 0.07 0.00 82 1018.1
20260506091514 50 178 0.0 0.0 0.00 0.07 0.00 83 1015.8
20260506090058 50 0 0.0 0.0 0.00 0.07 0.00 82 1018.3
20260506090013 50 178 0.0 0.0 0.00 0.07 0.00 83 1016.1
20260506084550 51 0 0.0 0.0 0.00 0.07 0.00 82 1018.2
20260506084511 51 178 0.0 0.0 0.00 0.07 0.00 83 1016.1
20260506083101 51 0 0.0 0.0 0.00 0.07 0.00 82 1018.4
20260506083009 51 178 0.0 0.0 0.00 0.07 0.00 83 1016.2
20260506081554 52 0 0.0 0.0 0.00 0.07 0.00 83 1018.4
20260506081513 52 178 0.0 0.0 0.00 0.07 0.00 83 1016.2
20260506073058 52 0 0.0 2.0 0.00 0.07 0.00 81 1018.8
20260506073005 52 178 0.0 2.0 0.00 0.07 0.00 82 1016.5
20260506071556 52 0 0.0 1.0 0.00 0.07 0.00 82 1018.5
20260506071502 52 178 0.0 1.0 0.00 0.07 0.00 82 1016.4
20260506061558 53 178 0.0 2.0 0.00 0.07 0.07 83 1016.0
20260506061551 53 0 0.0 2.0 0.00 0.07 0.07 82 1018.1
20260506044555 54 178 0.0 1.0 0.00 0.07 0.07 78 1015.0
20260506043055 55 178 0.0 3.0 0.00 0.07 0.07 77 1014.8
20260506043053 55 0 0.0 3.0 0.00 0.07 0.07 76 1016.8
20260506041559 55 0 0.0 3.0 0.00 0.07 0.07 76 1016.6
20260506041551 55 178 0.0 3.0 0.00 0.07 0.07 76 1014.5
20260506040107 56 0 0.0 2.0 0.00 0.07 0.07 74 1016.4
20260506040050 56 177 0.0 2.0 0.00 0.07 0.07 75 1014.4
20260506034609 56 177 1.0 4.0 0.00 0.07 0.07 73 1014.2
20260506034551 56 0 1.0 4.0 0.00 0.07 0.07 72 1016.2
20260506033049 57 184 0.0 4.0 0.00 0.07 0.07 72 1014.1
20260506033046 57 0 0.0 4.0 0.00 0.07 0.07 72 1016.0
20260506031552 57 192 0.0 3.0 0.00 0.07 0.07 70 1015.9
20260506030107 57 195 0.0 5.0 0.00 0.07 0.07 69 1015.7
20260506030048 57 195 1.0 5.0 0.00 0.07 0.07 70 1013.5
20260506024558 58 0 0.0 4.0 0.00 0.07 0.07 67 1015.4
20260506024552 58 151 0.0 4.0 0.00 0.07 0.07 68 1013.3
20260506023055 58 208 1.0 4.0 0.00 0.07 0.07 66 1013.2
20260506023051 58 0 0.0 3.0 0.00 0.07 0.07 66 1015.2
20260506021559 58 0 0.0 4.0 0.00 0.07 0.07 64 1014.9
20260506021545 58 208 0.0 3.0 0.00 0.07 0.07 64 1012.9
20260506020054 59 0 0.0 4.0 0.00 0.07 0.07 64 1014.8
20260506020045 59 215 0.0 4.0 0.00 0.07 0.07 64 1012.8
20260506014558 59 214 1.0 9.0 0.00 0.07 0.07 63 1014.5
20260506014545 59 214 1.0 8.0 0.00 0.07 0.07 63 1012.6
20260506013054 59 218 1.0 8.0 0.00 0.07 0.07 62 1014.4
20260506013046 59 218 1.0 7.0 0.00 0.07 0.07 63 1012.4
20260506011551 60 0 0.0 5.0 0.00 0.07 0.07 61 1014.2
20260506011545 60 185 0.0 3.0 0.00 0.07 0.07 61 1012.3
20260506010101 60 0 0.0 4.0 0.00 0.07 0.07 60 1014.1
20260506010054 60 209 0.0 4.0 0.00 0.07 0.07 60 1012.2
20260506004553 61 0 0.0 4.0 0.00 0.07 0.07 59 1014.0
20260506004542 61 125 0.0 4.0 0.00 0.07 0.07 59 1012.1
20260506003057 61 0 1.0 6.0 0.00 0.07 0.07 57 1014.1
20260506003042 61 227 1.0 6.0 0.00 0.07 0.07 57 1012.2
20260506001556 62 0 0.0 6.0 0.00 0.07 0.07 56 1013.9
20260506001545 62 191 0.0 6.0 0.00 0.07 0.07 56 1012.0
20260506000108 63 0 0.0 6.0 0.00 0.07 0.07 54 1013.8
20260506000041 63 187 1.0 6.0 0.00 0.07 0.07 55 1011.8
20260505234557 63 176 2.0 7.0 0.00 0.07 0.07 53 1013.7
20260505234541 63 188 1.0 6.0 0.00 0.07 0.07 54 1011.8
20260505233114 62 195 1.0 9.0 0.00 0.07 0.07 53 1013.9
20260505233046 62 195 1.0 9.0 0.00 0.07 0.07 53 1011.7
20260505231556 62 0 0.0 4.0 0.00 0.07 0.07 52 1013.8
20260505231539 62 195 0.0 4.0 0.00 0.07 0.07 53 1012.0
20260505230058 62 205 0.0 4.0 0.00 0.07 0.07 55 1013.8
20260505230046 62 205 0.0 4.0 0.00 0.07 0.07 56 1012.1
20260505224556 62 0 1.0 5.0 0.00 0.07 0.07 54 1013.7
20260505224543 62 205 1.0 5.0 0.00 0.07 0.07 55 1012.1
20260505223054 62 213 0.0 5.0 0.00 0.07 0.07 54 1013.8
20260505223041 62 212 0.0 3.0 0.00 0.07 0.07 55 1012.2
20260505221600 62 217 0.0 6.0 0.00 0.07 0.07 54 1013.9
20260505221537 62 223 1.0 8.0 0.00 0.07 0.07 55 1012.2
20260505220050 63 0 0.0 6.0 0.00 0.07 0.07 53 1013.8
20260505220036 63 246 0.0 6.0 0.00 0.07 0.07 54 1012.2
20260505214555 64 0 0.0 5.0 0.00 0.07 0.07 52 1013.9
20260505214536 64 200 0.0 5.0 0.00 0.07 0.07 52 1012.2
20260505213051 64 186 0.0 7.0 0.00 0.07 0.07 50 1014.1
20260505213035 64 187 1.0 6.0 0.00 0.07 0.07 51 1012.4
20260505211551 65 0 0.0 4.0 0.00 0.07 0.07 50 1014.1
20260505211535 65 196 0.0 3.0 0.00 0.07 0.07 50 1012.5
20260505210052 66 0 1.0 8.0 0.00 0.07 0.07 48 1014.1
20260505210034 66 184 1.0 7.0 0.00 0.07 0.07 49 1012.5
20260505204633 65 121 2.0 5.0 0.00 0.07 0.07 53 1012.5
20260505204559 65 182 1.0 7.0 0.00 0.07 0.07 54 1014.2
20260505203057 64 177 0.0 6.0 0.00 0.07 0.07 52 1014.0
20260505203037 64 176 1.0 6.0 0.00 0.07 0.07 52 1012.5
20260505201555 66 0 1.0 8.0 0.00 0.07 0.07 49 1014.3
20260505201545 66 220 1.0 7.0 0.00 0.07 0.07 50 1012.6
20260505200051 67 187 1.0 7.0 0.00 0.07 0.07 48 1014.2
20260505200033 67 186 2.0 6.0 0.00 0.07 0.07 49 1012.6
20260505194558 66 0 2.0 8.0 0.00 0.07 0.07 51 1014.4
20260505194529 66 215 3.0 8.0 0.00 0.07 0.07 51 1012.8
20260505193105 65 0 1.0 8.0 0.00 0.07 0.07 54 1014.9
20260505193026 65 197 0.0 8.0 0.00 0.07 0.07 55 1013.1
20260505191558 63 200 0.0 6.0 0.00 0.07 0.07 60 1014.9
20260505191524 63 200 0.0 5.0 0.00 0.07 0.07 61 1013.0
20260505190054 62 205 0.0 4.0 0.00 0.07 0.07 60 1015.1
20260505190032 61 205 0.0 4.0 0.00 0.07 0.07 60 1013.1
20260505184556 62 0 0.0 4.0 0.00 0.07 0.07 57 1014.9
20260505184523 62 214 0.0 3.0 0.00 0.07 0.07 57 1013.1
20260505183055 63 179 1.0 8.0 0.00 0.07 0.07 56 1014.9
20260505183022 63 179 1.0 8.0 0.00 0.07 0.07 57 1012.9
20260505181556 65 126 0.0 4.0 0.00 0.07 0.07 54 1014.9
20260505181521 65 126 0.0 4.0 0.00 0.07 0.07 55 1012.8
20260505180051 63 168 0.0 5.0 0.00 0.07 0.07 58 1014.9
20260505180017 63 167 0.0 4.0 0.00 0.07 0.07 58 1013.0